Wind_Speed
13 13 13 11 10 9 8 10 13 13 12 13 13 13 14 15 15 15 16 18 18 19 19 19 19 17 17 17 17 17 17 18 18 19 19 19 18 17 17 17 18 16 17
16 13 13 12 10 10 9 10 12 11 11 11 11 12 13 13 14 15 16 17 18 18 18 17 16 17 17 17 17 17 17 16 17 17 17 18 17 17 18 18 17 15 16
17 14 11 12 10 9 10 9 10 9 9 10 10 12 12 13 13 14 16 18 19 17 16 17 17 16 16 16 16 15 15 15 15 16 17 15 15 16 18 16 15 15 16
17 14 12 12 10 9 9 9 9 8 8 9 9 10 11 12 13 14 16 16 17 17 16 15 15 15 16 16 15 14 13 13 14 14 13 14 14 15 14 16 14 16 16
17 14 12 11 10 10 10 10 9 10 9 9 10 10 11 13 14 14 15 16 16 15 15 13 12 12 13 12 14 12 12 12 13 13 13 12 13 13 13 13 14 15 13
16 13 11 11 12 9 11 10 10 11 9 10 10 10 11 13 15 15 15 15 15 14 13 13 12 9 8 8 7 10 11 11 11 11 12 13 13 13 13 13 13 12 14
15 13 11 10 11 10 9 11 10 10 11 10 10 11 12 14 14 15 15 14 14 13 13 13 13 14 12 11 10 9 9 10 10 10 11 11 11 11 12 11 12 11 11
15 13 11 11 11 9 10 12 12 10 11 10 10 11 12 14 14 14 16 14 13 12 12 13 13 11 10 10 9 10 9 8 8 9 9 10 9 11 10 10 12 11 12
14 13 11 11 10 11 10 11 12 12 12 11 10 11 12 13 14 14 15 14 13 12 12 11 11 10 9 10 11 10 8 8 7 7 8 9 7 9 9 9 8 8 7
13 12 12 11 10 11 10 11 11 12 11 11 11 11 13 14 15 14 14 13 11 11 10 9 10 9 9 8 8 8 10 8 6 6 6 6 8 7 8 8 7 7 7
12 11 10 10 10 12 11 11 11 12 12 12 12 13 13 13 14 13 13 12 10 9 8 8 7 8 8 7 8 7 8 6 5 4 5 5 6 7 7 7 7 7 7
13 11 10 10 10 10 10 11 11 10 10 11 12 13 13 14 14 13 13 12 12 9 6 5 4 4 5 3 3 5 5 5 4 4 3 5 6 5 6 7 7 6 7
14 11 10 10 10 10 10 10 8 9 9 10 12 12 12 12 12 11 12 10 8 7 5 4 3 4 5 4 4 4 4 5 4 4 3 4 4 4 5 6 6 7 7
13 12 11 11 10 10 12 10 11 11 10 10 10 12 12 10 9 11 8 8 8 6 4 4 4 5 5 5 4 3 4 3 4 4 4 4 4 4 4 5 6 7 7
12 12 12 11 11 13 12 11 10 10 9 8 9 11 10 9 9 7 9 8 7 7 6 6 7 7 8 7 5 3 2 4 4 4 5 7 5 5 4 5 6 6 7
12 12 12 12 13 13 12 13 11 8 9 8 9 10 9 8 6 6 5 6 7 6 6 7 8 8 7 8 9 6 4 2 5 6 4 5 8 7 7 7 7 7 7
13 13 13 13 13 13 11 11 9 7 8 8 10 10 7 5 6 6 7 7 7 6 7 8 7 7 6 6 5 4 3 3 3 5 4 4 4 8 8 8 8 8 9
13 13 13 13 12 12 11 10 8 8 9 9 9 7 4 5 4 5 6 6 6 6 6 6 6 6 5 4 4 4 3 4 4 4 4 5 5 4 6 8 7 8 9
15 14 14 13 12 12 11 9 7 6 7 7 7 6 5 6 4 4 5 6 6 6 6 5 6 6 5 5 5 4 4 4 3 2 4 5 5 5 5 6 7 8 10
16 15 15 12 11 13 12 10 7 7 6 6 7 7 5 5 4 4 4 5 6 5 5 6 6 5 5 6 5 4 3 3 3 2 2 3 4 6 5 8 9 7 9
17 17 17 15 13 14 12 8 6 7 6 6 6 5 4 4 3 3 3 4 5 5 6 6 4 4 5 8 4 3 3 4 4 3 3 3 4 5 6 7 8 8 9
19 19 18 18 16 17 14 14 8 9 8 6 7 5 4 4 3 2 2 2 4 5 5 6 6 3 4 8 4 2 3 2 5 4 4 4 3 4 4 7 9 9 11
21 21 19 19 17 16 16 14 9 9 8 7 6 5 4 4 3 2 1 2 2 3 3 4 6 5 4 5 9 3 1 3 4 3 4 4 5 4 5 8 9 9 11
23 20 18 19 19 17 18 13 13 11 9 7 8 8 6 5 6 5 4 4 3 3 2 2 4 5 6 6 4 7 7 5 3 1 3 4 4 4 6 6 6 8 11
22 21 20 21 20 17 18 14 13 10 7 8 8 9 7 6 5 7 7 6 4 3 3 2 2 5 6 6 7 3 2 4 5 3 3 5 4 6 6 5 4 6 9
21 20 20 24 24 20 17 19 16 13 11 8 9 7 7 7 6 7 5 5 4 5 4 4 3 3 4 4 5 5 6 4 7 5 3 3 4 5 6 6 3 4 6
Wind_Direction
168 166 165 163 146 127 109 98 91 87 87 91 93 95 91 94 93 93 88 91 92 91 95 97 97 97 96 98 95 90 87 84 86 83 80 79 81 81 79 81 78 78 81
150 154 154 151 142 125 117 106 100 91 86 92 95 91 92 93 95 92 95 94 94 93 96 96 94 89 90 91 90 84 83 79 83 85 82 77 78 80 77 76 79 81 81
142 144 144 142 129 122 110 105 108 112 112 110 97 92 96 94 99 98 100 99 96 92 94 92 90 91 89 88 85 85 86 83 84 80 77 81 76 77 76 80 82 83 80
139 139 134 136 133 128 131 119 126 122 112 106 105 107 101 101 104 102 104 104 107 105 100 97 97 92 88 88 82 83 82 84 84 79 79 79 76 74 78 78 77 75 69
132 134 136 137 129 129 130 139 117 125 117 114 114 114 109 108 108 108 109 106 105 104 96 93 86 92 91 86 77 81 82 84 84 75 74 76 73 71 75 75 71 72 74
133 130 129 126 120 124 131 123 130 113 117 113 115 116 115 109 104 106 111 109 106 98 91 85 79 85 91 86 79 75 79 84 77 78 80 69 69 79 75 72 74 77 70
130 126 122 127 114 118 118 125 128 123 121 121 117 115 112 108 103 105 108 108 107 100 85 81 86 84 85 89 93 75 80 83 77 80 81 72 72 75 71 73 73 69 60
130 130 124 114 118 110 113 120 124 121 115 114 111 112 112 109 100 102 108 108 109 100 85 90 87 79 81 84 80 80 81 85 79 77 80 68 67 68 72 72 63 61 51
130 129 124 119 113 112 113 106 105 111 111 110 108 107 106 105 104 93 100 106 106 102 92 94 81 70 74 77 72 69 68 74 73 80 76 71 74 63 66 65 59 64 67
133 130 126 122 120 113 105 104 100 104 105 104 101 98 101 95 95 94 92 103 108 105 105 91 81 69 70 82 69 67 57 61 64 74 74 76 76 49 54 51 49 47 43
138 136 131 126 120 114 109 107 104 105 107 108 108 105 106 97 94 92 95 97 103 108 103 88 67 62 67 71 60 53 50 55 59 66 65 74 61 49 43 38 37 35 33
150 144 142 134 130 118 115 121 117 112 110 110 107 108 103 103 106 104 101 97 102 103 105 93 76 34 33 39 32 27 38 36 43 45 53 57 46 40 28 25 24 22 20
156 151 147 140 135 124 126 125 121 122 118 112 114 111 110 101 102 101 99 93 85 84 72 50 17 347 337 337 348 358 3 16 31 33 22 45 46 30 16 12 3 5 6
162 156 150 146 145 135 131 121 118 122 124 120 117 120 119 108 101 101 88 84 83 72 62 37 6 350 340 325 303 310 354 21 28 35 25 35 29 21 8 359 359 1 0
165 160 155 152 150 145 138 135 131 126 128 129 124 127 126 115 110 91 90 87 75 79 67 57 42 28 38 48 51 41 22 23 23 31 35 36 39 32 23 17 11 6 5
169 164 160 154 150 148 144 137 136 133 133 130 131 132 128 122 98 87 80 78 82 81 69 53 48 44 47 63 58 56 38 28 16 25 25 29 39 43 39 32 25 17 15
169 165 164 157 155 153 151 144 144 140 140 141 137 130 121 130 91 96 95 81 81 77 76 56 55 58 59 58 47 32 17 0 3 19 20 19 17 29 35 34 29 24 17
164 169 165 162 161 160 156 147 141 132 137 145 152 146 133 149 106 95 81 75 72 89 70 57 60 61 50 32 14 359 346 347 355 16 19 17 18 17 17 25 21 18 9
174 172 173 170 169 166 164 161 156 148 140 154 153 133 120 141 114 93 101 69 75 97 73 60 62 39 19 16 5 356 334 326 330 335 7 16 6 12 8 7 11 3 2
184 182 182 181 182 174 173 169 172 159 151 149 150 147 121 119 105 105 99 72 84 103 79 68 53 36 33 360 351 1 9 14 19 357 339 351 2 5 355 2 355 349 3
188 189 191 189 189 185 185 177 177 179 166 162 166 160 163 145 123 95 100 71 87 91 72 60 44 52 31 10 6 45 33 46 43 39 18 337 334 340 348 350 351 349 353
193 196 195 198 204 208 203 194 196 190 185 183 185 173 180 203 167 96 126 91 98 96 79 69 60 48 39 32 28 8 33 99 35 37 29 16 355 352 345 356 359 360 358
199 199 202 200 210 212 195 195 189 170 169 185 198 211 196 188 205 159 181 137 123 127 101 62 54 64 65 52 47 27 54 33 341 22 28 31 25 2 357 357 357 359 355
202 200 203 207 207 202 189 187 187 173 176 191 197 213 216 197 211 188 232 204 172 169 131 83 73 69 60 56 65 69 69 46 8 46 47 24 13 7 349 356 1 10 16
196 197 198 205 208 204 197 193 184 177 178 177 187 197 209 201 185 186 187 178 199 205 212 177 127 92 71 61 57 55 53 45 38 13 37 26 65 36 8 359 21 20 20
192 194 195 202 210 210 206 202 201 191 190 191 193 191 202 204 208 204 204 193 225 221 205 204 179 122 87 66 55 42 46 43 35 25 12 5 360 17 20 16 349 31 33
Height
839 839 840 841 841 842 842 842 842 843 844 844 845 846 845 845 845 847 847 848 848 849 850 851 851 851 852 853 854 854 853 853 853 853 854 854 855 855 854 853 853 855 854
839 842 842 843 844 844 845 845 845 846 847 848 850 848 848 848 848 849 849 850 851 851 852 853 854 854 855 856 856 857 856 856 856 857 856 857 858 857 856 856 856 858 857
841 843 845 845 845 845 846 847 848 850 851 851 851 850 851 851 852 852 852 853 854 855 856 856 857 858 858 858 859 859 859 860 859 858 859 861 861 860 858 859 860 860 860
842 844 847 848 848 848 849 851 852 853 853 853 853 853 854 855 856 855 856 857 858 858 858 859 860 861 861 861 862 862 861 861 861 861 863 863 863 862 862 862 863 862 863
844 846 847 847 849 850 851 852 854 854 855 855 855 856 856 858 859 859 860 860 860 861 861 862 862 864 864 864 865 864 864 864 864 864 866 866 865 865 865 865 866 866 866
845 847 848 849 850 852 853 854 855 855 856 857 857 858 860 861 861 861 862 863 863 864 864 865 866 866 866 866 866 867 866 866 866 867 868 868 867 867 867 868 868 869 869
847 849 850 851 852 853 854 856 856 857 858 859 859 860 861 861 864 864 865 866 867 867 868 868 869 868 868 869 869 868 868 868 869 869 870 870 870 870 870 871 871 871 871
847 849 851 852 853 854 857 856 858 858 859 860 861 863 862 863 866 867 868 869 869 870 871 871 871 871 871 871 870 870 870 870 871 871 871 873 872 873 874 874 873 873 874
849 850 852 854 855 856 858 860 860 860 861 863 863 865 866 866 868 870 870 872 872 873 872 873 873 873 873 873 872 872 872 872 873 873 874 875 875 876 876 875 875 875 875
850 852 853 855 857 858 860 861 862 862 864 864 866 867 868 869 870 872 873 874 874 874 874 875 875 875 875 875 875 874 874 874 875 876 876 877 876 877 877 877 877 876 876
852 853 855 856 858 860 862 863 864 865 866 866 867 870 869 871 873 875 875 876 876 877 876 877 877 877 878 877 877 876 876 877 877 877 878 877 878 878 878 878 878 877 877
852 854 856 858 860 861 863 864 865 867 868 869 870 871 872 873 875 876 877 878 878 878 878 878 878 878 878 879 879 878 879 878 878 879 880 879 879 879 879 879 879 878 878
853 855 857 858 861 862 863 864 866 869 870 871 872 873 874 876 877 878 879 880 880 880 880 880 880 880 879 879 880 880 879 879 880 880 880 879 880 880 880 880 880 879 878
853 856 858 860 861 863 865 867 868 870 872 874 874 875 876 878 879 880 881 881 881 881 881 881 881 880 879 879 880 880 881 881 881 881 881 880 880 880 881 881 880 879 879
854 856 859 860 863 864 866 868 870 872 874 875 876 877 878 880 881 881 882 882 883 883 883 883 882 881 881 880 880 881 881 881 881 881 881 880 880 881 881 881 880 880 879
853 856 859 862 864 866 868 870 871 873 875 876 877 878 880 881 882 882 883 883 883 884 884 884 883 883 883 883 882 882 882 882 882 881 882 882 881 881 881 881 881 880 879
854 856 859 863 864 867 869 871 873 874 876 877 879 879 881 882 882 883 883 884 884 885 884 884 884 884 885 884 884 884 883 883 883 882 882 883 883 882 882 882 882 881 880
854 857 860 863 865 867 870 872 874 875 876 878 879 880 881 882 883 883 884 885 885 885 885 885 885 885 885 885 884 884 883 883 882 882 883 883 883 883 883 882 882 881 879
854 857 860 863 865 867 870 873 875 876 877 878 880 881 882 883 883 884 884 885 886 886 886 886 885 885 885 885 884 883 883 882 882 883 883 883 883 883 884 883 882 881 879
854 857 860 863 865 868 870 873 875 877 878 879 880 881 883 883 884 884 885 886 886 887 887 887 887 886 885 884 884 883 882 882 882 882 883 884 884 883 883 883 882 881 880
853 856 859 862 865 867 870 872 875 877 878 880 881 882 883 884 885 886 886 887 887 888 887 888 888 887 887 885 884 883 883 882 882 882 883 883 884 884 883 882 881 881 879
849 854 858 861 864 866 869 871 873 875 878 880 881 882 883 884 885 886 887 887 888 888 889 889 888 889 887 886 885 884 882 883 883 883 882 883 883 882 883 882 881 880 879
847 851 855 859 862 865 868 871 873 874 877 879 880 881 884 883 884 886 887 887 888 889 890 889 889 889 888 888 886 886 883 883 884 883 883 883 882 883 883 882 882 881 879
844 849 854 858 861 864 867 870 872 874 876 878 879 882 883 882 884 885 886 887 889 890 890 890 889 890 889 889 888 888 887 887 884 882 883 883 882 882 882 882 882 880 879
843 846 851 856 860 864 866 869 872 873 875 876 878 880 882 882 883 885 886 886 888 889 890 890 890 889 890 890 890 889 889 888 887 886 882 883 883 882 882 881 880 880 879
842 845 849 853 858 862 865 868 870 871 873 876 877 878 879 879 880 881 883 885 886 887 889 890 890 890 890 890 890 890 890 889 888 887 885 884 883 883 883 881 880 880 879